Location: Butry
(49.0884°N, 2.1992°E)
Time: 04:03:15
(UTC+00:00)

Daily predictions for brighter satellites

Satellite Brightness Start Highest point End
(mag) Time Altitude Azimuth Time Altitude Azimuth Time Altitude Azimuth
Resurs 1-4 Rocket 4.0 01:35:17 10° NNE 01:37:26 25° NNE 01:37:26 25° NNE
Cosmos 1697 Rocket 4.3 01:36:27 10° NNW 01:41:24 30° NE 01:46:20 10° ESE
CZ-2D R/B 3.9 01:40:32 10° NNE 01:42:56 27° NNE 01:42:56 27° NNE
IDEFIX/ARIANE 42P 4.2 01:48:58 10° NNE 01:51:47 31° NE 01:51:47 31° NE
SL-16 R/B 4.0 02:01:53 27° NNW 02:01:53 27° NNW 02:04:29 10° NNW
Cosmos 1980 Rocket 3.8 02:17:17 10° NNW 02:22:15 31° NE 02:27:11 10° ESE
ADEOS II 3.2 02:19:57 10° NNE 02:23:07 38° N 02:23:07 38° N
ATLAS 5 CENTAUR R/B 4.0 02:42:00 15° N 02:42:08 15° N 02:44:52 10° NNE
Cosmos 1833 Rocket 2.8 03:01:05 65° SSE 03:01:37 70° ESE 03:07:16 10° NNE
CENTAUR R/B 4.5 02:58:53 11° SSE 03:03:02 22° ESE 03:07:56 10° ENE
MSX 4.1 02:57:59 10° N 03:02:58 52° NW 03:02:58 52° NW
FENGYUN 3A 3.9 02:58:36 10° NNE 03:03:59 67° ESE 03:05:03 54° SSE
Atlas Centaur 2 4.5 03:12:00 19° S 03:12:00 19° S 03:16:25 10° SE
Cosmos 1371 Rocket 4.2 03:10:55 57° SSE 03:11:47 67° ESE 03:16:59 10° NNE
USA 307 3.5 03:13:49 53° E 03:13:49 53° E 03:17:06 10° ENE
ATLAS CENTAUR R/B 2.3 03:12:30 49° SE 03:12:58 51° ESE 03:17:41 10° NE
Meteor 1-4 Rocket 4.0 03:10:00 10° N 03:12:36 36° NE 03:12:36 36° NE
Resurs 1-4 Rocket 3.9 03:16:10 10° NNW 03:18:30 18° NW 03:18:30 18° NW
Cosmos 1934 Rocket 4.2 03:22:36 49° W 03:22:49 49° WNW 03:28:56 10° N
Cosmos 2082 Rocket 3.2 03:19:36 21° SSE 03:22:59 43° ESE 03:28:16 10° NE
USA 306 3.0 03:24:27 69° NE 03:24:27 69° NE 03:28:07 10° ENE
CZ-2D R/B 3.9 03:21:42 10° NNW 03:24:14 18° NW 03:24:14 18° NW
Cosmos 1697 Rocket 3.4 03:20:11 10° NW 03:27:50 37° S 03:31:17 10° S
CZ-2C R/B 3.1 03:25:27 10° SSE 03:30:36 61° ENE 03:35:53 10° N
ALOS 2.1 03:26:04 10° NNE 03:30:46 87° WNW 03:31:32 63° SSW
BREEZE-M DEB (TANK) 3.3 03:32:42 38° E 03:32:42 38° E 03:34:12 10° E
Meteor 1-11 Rocket 3.8 03:26:33 10° NNW 03:32:35 88° WSW 03:38:31 10° S
BREEZE-M R/B 4.3 03:30:32 45° W 03:32:44 87° N 03:44:57 10° E
IDEFIX/ARIANE 42P 3.9 03:29:10 10° N 03:32:34 24° NW 03:32:34 24° NW
Cosmos 1605 Rocket 3.9 03:33:49 47° SW 03:35:20 61° WNW 03:41:23 10° N
Cosmos 1743 2.8 03:31:57 10° N 03:35:15 66° N 03:35:15 66° N
COSMOS 2406 3.4 03:34:02 31° S 03:36:48 70° ESE 03:42:28 10° NNE
CZ-2C R/B 2.4 03:31:48 10° NNE 03:36:50 84° ESE 03:38:51 36° S
CBERS-1 3.9 03:32:21 10° NNE 03:37:28 73° WNW 03:38:49 49° SW
Cosmos 1954 Rocket 3.9 03:32:52 10° NNW 03:38:04 67° WSW 03:43:17 10° S
PAYLOAD A 3.8 03:35:58 10° NNE 03:40:49 87° ESE 03:43:09 32° SSW
Cosmos 2056 Rocket 3.3 03:40:20 50° SW 03:41:41 77° WNW 03:46:49 10° NNE
Cosmos 1441 Rocket 3.2 03:42:10 60° SSE 03:42:42 75° E 03:46:29 10° NNE
IRS-1D 4.0 03:38:01 10° N 03:43:02 42° WNW 03:43:26 42° WNW
DELTA 2 DEB (DPAF) 4.5 03:40:17 10° SSE 03:44:38 64° ENE 03:49:00 10° N
Cosmos 1633 Rocket 3.0 03:41:28 10° NNW 03:45:35 58° W 03:45:35 58° W
USA 308 2.7 03:46:41 66° WNW 03:47:07 76° NNW 03:51:15 10° ENE
Cosmos 1420 Rocket 3.9 03:46:30 39° SSW 03:48:28 79° WNW 03:53:42 10° NNE
X-37B 2.2 03:50:05 25° SE 03:50:05 25° SE 03:51:42 10° ESE
YAOGAN 6 3.8 03:51:18 10° NNE 03:54:47 41° E 03:58:13 10° S
Cosmos 2322 Rocket 3.9 03:53:12 10° NNW 03:58:21 33° NE 04:03:27 10° ESE
Cosmos 1933 Rocket 3.8 03:54:20 10° N 03:58:47 70° E 04:03:11 10° SSE
Cosmos 1666 Rocket 4.4 03:56:01 10° NNW 03:59:05 32° WNW 03:59:05 32° WNW
Lacrosse 4 Rocket 2.8 03:56:15 10° NNW 04:00:24 42° NE 04:04:36 10° ESE
Cosmos 1328 Rocket 3.6 04:00:53 38° SW 04:02:17 57° WNW 04:06:39 10° N
Meteor 2-13 Rocket 4.3 03:56:10 10° NNW 04:02:20 81° W 04:08:29 10° S
Cosmos 1536 2.9 03:58:47 10° NNW 04:02:42 49° W 04:03:44 39° SW
Cosmos 1741 Rocket 4.2 03:57:43 10° NNW 04:02:58 73° ENE 04:08:10 10° SSE
ADEOS II 3.9 04:01:11 10° NNW 04:04:03 15° NW 04:04:03 15° NW
Cosmos 1151 Rocket 3.7 04:05:02 33° WNW 04:05:02 33° WNW 04:08:49 10° N
Helios 1B rocket 2.3 04:02:03 10° N 04:06:06 65° WNW 04:07:56 31° SW
Cosmos 1346 Rocket 3.1 04:06:06 42° W 04:06:28 43° WNW 04:10:17 10° N
Cosmos 1980 Rocket 2.2 04:01:05 10° NW 04:06:33 56° WSW 04:12:00 10° S
Cosmos 2173 Rocket 3.9 04:03:50 10° S 04:09:57 85° W 04:16:05 10° N
IKONOS-2 4.4 04:07:14 10° SSE 04:11:27 86° WSW 04:15:44 10° NNW
Meteor 2-9 Rocket 4.2 04:06:28 10° NNW 04:12:17 88° E 04:17:52 10° S
USA 305 3.2 04:12:19 33° WNW 04:13:52 53° NNW 04:17:55 10° ENE
GP-B 3.4 04:09:32 10° SSE 04:13:57 70° E 04:18:22 10° N
Cosmos 2369 4.0 04:12:32 10° NW 04:17:53 43° WSW 04:23:10 10° S
ARIANE 5 R/B 2.4 04:13:35 10° NNE 04:18:37 72° WNW 04:23:35 10° SSW
IRS-1C 4.1 04:15:48 10° N 04:21:05 62° WNW 04:26:20 10° SSW
CZ-2D R/B 3.2 04:19:29 10° N 04:23:26 76° WNW 04:27:26 10° SSW
Cosmos 2278 3.6 04:19:06 10° NNW 04:24:45 72° WSW 04:30:22 10° SSE
SL-08 R/B 3.2 04:20:36 10° S 04:25:14 64° WSW 04:30:00 10° NNW
Cosmos 1515 Rocket 3.6 04:22:08 10° SSW 04:26:31 62° WNW 04:30:58 10° N
SL-16 R/B 2.6 04:21:26 10° NNW 04:27:07 65° ENE 04:32:45 10° SE
ATLAS 5 CENTAUR R/B 4.1 04:25:12 10° NNW 04:28:29 18° NNE 04:32:10 10° ENE
Centaur D AC-29 4.3 04:22:50 10° SSW 04:29:04 22° SSE 04:50:09 10° ESE
Cosmos 1470 Rocket 4.1 04:27:37 10° NNW 04:31:31 33° W 04:35:26 10° SSW
Cosmos 1110 Rocket 4.4 04:26:37 10° S 04:31:46 67° ESE 04:36:55 10° NNE
BREEZE M DEB (TANK) 3.9 04:20:45 14° WSW 04:31:47 64° SSE 04:35:42 10° E
Meteor 1-27 Rocket 4.0 04:26:42 10° SSW 04:32:20 50° WNW 04:38:05 10° N
Cosmos 2228 Rocket 4.1 04:29:58 10° SSE 04:34:18 50° E 04:38:37 10° NNE
Cosmos 1452 Rocket 3.5 04:29:03 10° SSW 04:34:19 83° WNW 04:39:39 10° NNE
Envisat 2.9 04:36:03 10° N 04:41:09 75° WNW 04:46:13 10° SSW
CZ-4C R/B 3.4 04:37:57 10° S 04:42:09 73° WSW 04:46:31 10° NNW
Cosmos 44 Rocket 3.4 04:41:09 16° WSW 04:44:42 52° NW 04:49:20 10° NNE
Cosmos 1484 Rocket 3.2 04:41:20 10° N 04:45:09 44° WNW 04:48:54 10° SW
Meteor 1-18 Rocket 4.4 04:39:35 10° S 04:45:17 79° E 04:50:56 10° NNE
Cosmos 1833 Rocket 3.8 04:42:48 16° W 04:46:05 27° NW 04:50:50 10° NNE
Okean 1 3.5 04:42:10 10° SSW 04:46:05 49° WNW 04:50:01 10° N
Cosmos 482 Debris 4.4 04:43:29 17° WNW 04:46:07 74° SSW 04:51:30 10° ESE
Cosmos 1378 3.1 04:42:55 10° SSW 04:46:29 55° WNW 04:50:05 10° N
Cosmos 2100 Rocket 4.2 04:41:13 10° SW 04:47:04 46° WNW 04:53:00 10° N
OPS 6432 4.1 04:46:04 10° NW 04:49:03 88° NE 04:52:20 10° SE
Meteor 1-29 2.9 04:46:27 10° N 04:49:41 56° WNW 04:52:56 10° SSW
Cosmos 968 Rocket 3.8 04:45:44 10° NNW 04:50:55 69° ENE 04:56:02 10° SSE
ATLAS CENTAUR R/B 2.6 04:48:29 16° W 04:51:55 35° NW 04:56:22 10° NNE
SJ 16-02 4.2 04:49:28 10° NNE 04:52:06 15° NE 04:54:43 10° E
USA 307 3.5 04:49:22 15° W 04:52:33 46° N 04:56:34 10° ENE
CENTAUR R/B 2.6 04:46:42 10° SW 04:52:38 84° NW 04:59:55 10° NE
Cosmos 2016 Rocket 4.0 04:46:27 10° SSW 04:52:46 66° WNW 04:59:08 10° N
SL-08 R/B 4.4 04:47:17 10° SSW 04:53:21 74° W 04:59:32 10° N
Cosmos 2219 Rocket 4.2 04:48:50 10° NNW 04:53:44 29° NE 04:58:34 10° ESE
ERBS 4.1 04:52:38 10° NW 04:54:40 18° N 04:56:44 10° NE
COSMOS 2455 3.6 04:49:00 10° NNW 04:54:56 56° NE 05:00:52 10° SE
Cosmos 2333 Rocket 3.7 04:52:15 10° NNW 04:57:36 39° NE 05:02:53 10° ESE
Cosmos 2061 Rocket 4.0 04:53:18 10° SSW 04:59:27 69° WNW 05:05:40 10° N
Orbus 7S? 4.3 04:57:09 14° W 05:00:07 50° NNW 05:07:14 10° ENE
USA 306 3.6 04:59:58 11° WNW 05:03:39 42° N 05:07:35 10° ENE
Cosmos 192 4.4 05:00:04 10° SSW 05:05:01 86° WNW 05:10:01 10° NNE
COSMO-SKYMED 1 2.5 05:02:03 10° S 05:06:23 79° WSW 05:10:46 10° NNW
Cosmos 2082 Rocket 2.8 05:01:56 10° WSW 05:07:08 38° NW 05:12:23 10° NNE
ALOS 4.1 05:05:04 10° NNW 05:07:26 14° NW 05:09:48 10° W
Cosmos 1242 Rocket 2.3 05:06:44 10° NNW 05:10:11 72° W 05:13:34 10° S
Cosmos 1707 Rocket 3.9 05:06:46 10° S 05:11:05 70° E 05:15:25 10° NNE
CZ-2C R/B 3.7 05:07:20 10° SW 05:11:20 22° W 05:15:25 10° NW
Cosmos 1461 2.9 05:07:35 10° SW 05:11:34 60° NW 05:15:46 10° NNE
Cosmos 1975 3.1 05:08:35 10° NNW 05:12:24 44° W 05:16:10 10° SSW
Cosmos 1869 Rocket 4.0 05:09:47 10° NNW 05:13:59 41° W 05:18:05 10° SSW
CZ-2C R/B 4.0 05:11:16 10° NNW 05:14:21 17° NW 05:17:24 10° W
Cosmos 2360 Rocket 2.5 05:09:45 10° NNW 05:15:24 73° ENE 05:21:01 10° SE
NOSS 3-2 (C) 3.4 05:12:15 10° SW 05:17:44 85° SE 05:24:15 10° NE
NOSS 3-2 (A) 3.5 05:13:32 10° WSW 05:19:04 61° NW 05:25:38 10° NE
Cosmos 2344 4.5 05:10:47 10° NW 05:19:20 74° NE 05:31:11 10° SE
SKYMED 3 4.4 05:16:23 10° S 05:20:32 66° WSW 05:24:42 10° NNW
COSMOS 2406 4.3 05:16:54 10° WSW 05:21:39 27° NW 05:26:25 10° NNE
X-37B 2.2 05:21:52 10° WSW 05:24:04 20° SSW 05:26:16 10° SSE
Meteor 2-4 Rocket 3.8 05:19:13 10° SSW 05:24:54 61° WNW 05:30:28 10° N
